Regional Weather Roundup
Issued by NWS

Home | Current Version | Previous Version | Graphics & Text | Print | Product List | Glossary Off
Versions: 1 2 3 4 5 6 7 8 9 10 11 12 13 14 15 16 17 18 19 20 21 22 23 24 25 26 27 28 29 30 31 32 33 34 35 36 37 38 39 40 41 42 43 44 45 46 47 48 49 50

000
ASUS43 KLSX 261510
RWRMO

WEATHER SUMMARY FOR MISSOURI
NATIONAL WEATHER SERVICE SPRINGFIELD MO
1000 AM CDT FRI MAY 26 2017

NOTE: "FAIR" INDICATES FEW OR NO CLOUDS BELOW 12,000 FEET WITH NO
       SIGNIFICANT WEATHER AND/OR OBSTRUCTIONS TO VISIBILITY.
       CURRENT SKY AND/OR WEATHER CONDITIONS ARE NOT AVAILABLE FOR
       CHILLICOTHE AND FARMINGTON.

MOZ001>031-035>038-043-044-053-054-261600-
...NORTHERN AND WESTERN MISSOURI...

CITY           SKY/WX    TMP DP  RH WIND       PRES   REMARKS
KANSAS CTY INT MOSUNNY   73  63  70 W7        29.74R
KANSAS C DTWN  SUNNY     74  63  68 VRB3      29.72R
LEE`S SUMMIT   MOSUNNY   72  64  76 SE6       29.74S
ST JOSEPH      SUNNY     74  63  68 CALM      29.74R
CHILLICOTHE      N/A     72  64  76 VRB5      29.74R
KIRKSVILLE     CLOUDY    68  64  87 SW6       29.73R

$$
MOZ066>068-077>081-088>096-101>105-261600-
...SOUTHWEST MISSOURI...

CITY           SKY/WX    TMP DP  RH WIND       PRES   REMARKS
SPRINGFIELD    SUNNY     74  64  71 S16G24    29.73S
JOPLIN         SUNNY     77  67  71 S12       29.70S
BRANSON        PTSUNNY   72  63  73 SE12      29.78S

$$
MOZ032>034-039>042-045>050-055>058-069>072-261600-
...CENTRAL MISSOURI...

CITY           SKY/WX    TMP DP  RH WIND       PRES   REMARKS
COLUMBIA       MOSUNNY   72  64  76 CALM      29.75S
JEFFERSON CITY SUNNY     76  62  62 S5        29.74R
ROLLA          SUNNY     70  66  87 SW8       29.75R
SEDALIA        MOSUNNY   75  66  73 N3        29.75S
WHITEMAN AFB   MOSUNNY   73  68  85 CALM      29.73S
WARRENSBURG    CLOUDY    72  61  68 CALM      29.74R
OSAGE BEACH    MOSUNNY   71  65  81 S7        29.75R

$$
MOZ051-052-059>065-261600-
...EAST CENTRAL MISSOURI...

CITY           SKY/WX    TMP DP  RH WIND       PRES   REMARKS
ST LOUIS INTL  PTSUNNY   74  60  61 SE14      29.74F
SPIRIT OF STL  CLOUDY    77  64  64 S9G17     29.72F
ST CHARLES     MOSUNNY   71  61  70 SE12      29.73F

$$
MOZ072>076-082>087-097>100-106>115-261600-
...SOUTH CENTRAL AND SOUTHEAST MISSOURI...

CITY           SKY/WX    TMP DP  RH WIND       PRES   REMARKS
CAPE GIRARDEAU CLOUDY    70  61  73 S15G23    29.81F
FARMINGTON     PTSUNNY   70  62  76 S22G30    29.76F
POPLAR BLUFF   SUNNY     73  64  73 S10G21    29.83F
WEST PLAINS    SUNNY     71  63  75 S9G20     29.80F

$$




USA.gov is the U.S. government's official web portal to all federal, state and local government web resources and services.